TimeCDT,TemperatureF,Dew PointF,Humidity,Sea Level PressureIn,VisibilityMPH,Wind Direction,Wind SpeedMPH,Gust SpeedMPH,PrecipitationIn,Events,Conditions,WindDirDegrees,DateUTC
12:51 AM,79.0,75.9,90,30.04,10.0,Calm,Calm,-,N/A,,Clear,0,2013-06-23 05:51:00
1:51 AM,79.0,75.0,88,30.03,10.0,Calm,Calm,-,N/A,,Clear,0,2013-06-23 06:51:00
2:51 AM,79.0,75.9,90,30.02,10.0,Calm,Calm,-,N/A,,Clear,0,2013-06-23 07:51:00
3:51 AM,78.1,75.0,90,30.03,10.0,Calm,Calm,-,N/A,,Clear,0,2013-06-23 08:51:00
4:51 AM,78.1,75.0,90,30.03,10.0,Calm,Calm,-,N/A,,Clear,0,2013-06-23 09:51:00
5:51 AM,78.1,75.0,90,30.03,10.0,Calm,Calm,-,N/A,,Clear,0,2013-06-23 10:51:00
6:51 AM,79.0,73.9,84,30.04,10.0,SSE,5.8,-,N/A,,Scattered Clouds,160,2013-06-23 11:51:00
7:51 AM,80.1,75.9,87,30.07,10.0,South,5.8,-,N/A,,Clear,170,2013-06-23 12:51:00
8:39 AM,80.6,73.4,79,30.07,10.0,SSE,5.8,-,N/A,,Scattered Clouds,160,2013-06-23 13:39:00
8:51 AM,81.0,75.0,82,30.07,10.0,South,5.8,-,N/A,,Partly Cloudy,190,2013-06-23 13:51:00
9:51 AM,82.0,75.9,82,30.08,10.0,South,5.8,-,N/A,,Scattered Clouds,180,2013-06-23 14:51:00
10:51 AM,82.9,75.0,77,30.10,10.0,South,8.1,-,N/A,,Clear,180,2013-06-23 15:51:00
11:51 AM,84.0,75.0,74,30.09,10.0,SSW,8.1,-,N/A,,Clear,200,2013-06-23 16:51:00
12:47 PM,84.2,75.2,74,30.07,10.0,South,9.2,-,N/A,,Partly Cloudy,190,2013-06-23 17:47:00
12:51 PM,84.9,75.0,72,30.07,10.0,South,10.4,-,N/A,,Partly Cloudy,190,2013-06-23 17:51:00
1:51 PM,84.0,75.9,76,30.07,10.0,South,9.2,-,N/A,,Partly Cloudy,190,2013-06-23 18:51:00
2:51 PM,84.9,75.0,72,30.05,10.0,South,10.4,-,N/A,,Clear,190,2013-06-23 19:51:00
2:59 PM,84.2,75.2,74,30.05,10.0,South,9.2,-,N/A,,Partly Cloudy,180,2013-06-23 19:59:00
3:51 PM,84.9,75.0,72,30.04,10.0,SSW,8.1,-,N/A,,Clear,210,2013-06-23 20:51:00
4:28 PM,84.2,73.4,70,30.04,10.0,SSW,8.1,-,N/A,,Partly Cloudy,210,2013-06-23 21:28:00
4:51 PM,84.9,73.0,67,30.04,10.0,South,8.1,-,N/A,,Partly Cloudy,190,2013-06-23 21:51:00
5:51 PM,84.0,73.9,72,30.04,10.0,South,5.8,-,N/A,,Scattered Clouds,170,2013-06-23 22:51:00
6:51 PM,84.0,73.0,69,30.05,10.0,South,6.9,-,N/A,,Partly Cloudy,190,2013-06-23 23:51:00
7:51 PM,82.0,75.9,82,30.06,10.0,SSE,5.8,-,N/A,,Clear,150,2013-06-24 00:51:00
8:51 PM,81.0,73.9,79,30.06,10.0,SE,8.1,-,N/A,,Clear,140,2013-06-24 01:51:00
9:51 PM,81.0,75.0,82,30.08,10.0,SE,5.8,-,N/A,,Clear,130,2013-06-24 02:51:00
10:51 PM,80.1,75.9,87,30.09,10.0,SE,6.9,-,N/A,,Clear,130,2013-06-24 03:51:00
11:51 PM,81.0,77.0,88,30.09,10.0,SSE,5.8,-,N/A,,Clear,150,2013-06-24 04:51:00